Känerkinden
Datum - Zeit
TemperaturTaupunktFeuchteSolar Wind aus Richtung WindböenLuftdruck (QFF)RegenRegenstärkeTrend
01.09.2026 - 00.00Uhr15.7 °C10.4 °C71 %0.0 W/m²0.0 km/hNord-NO0.0 km/h1020.0 hPa0.0 mm0.0 mm/hsonnig
01.09.2026 - 00.05Uhr15.4 °C10.4 °C72 %0.0 W/m²0.0 km/hNord-NO0.0 km/h1020.0 hPa0.0 mm0.0 mm/hwechselhaft
01.09.2026 - 00.10Uhr15.2 °C10.3 °C73 %0.0 W/m²0.0 km/hNord-NO0.0 km/h1019.9 hPa0.0 mm0.0 mm/hwechselhaft
01.09.2026 - 00.15Uhr15.2 °C10.2 °C72 %0.0 W/m²0.0 km/hNord-NO0.0 km/h1019.9 hPa0.0 mm0.0 mm/hwechselhaft
01.09.2026 - 00.20Uhr15.0 °C10.3 °C73 %0.0 W/m²0.0 km/hNord-NO0.0 km/h1019.9 hPa0.0 mm0.0 mm/hwechselhaft
01.09.2026 - 00.25Uhr14.8 °C10.2 °C74 %0.0 W/m²0.0 km/hNord-NO0.0 km/h1020.0 hPa0.0 mm0.0 mm/hwechselhaft
01.09.2026 - 00.30Uhr14.7 °C10.1 °C74 %0.0 W/m²0.0 km/hNord-NO0.0 km/h1020.0 hPa0.0 mm0.0 mm/hwechselhaft
01.09.2026 - 00.35Uhr14.9 °C10.1 °C73 %0.0 W/m²0.0 km/hNord-NO0.0 km/h1020.0 hPa0.0 mm0.0 mm/hwechselhaft
01.09.2026 - 00.40Uhr14.7 °C10.2 °C74 %0.0 W/m²0.0 km/hNord-NO0.0 km/h1020.0 hPa0.0 mm0.0 mm/hwechselhaft
01.09.2026 - 00.45Uhr14.6 °C10.1 °C74 %0.0 W/m²0.0 km/hNord-NO0.0 km/h1019.9 hPa0.0 mm0.0 mm/hwechselhaft
01.09.2026 - 00.50Uhr14.8 °C10.0 °C73 %0.0 W/m²0.0 km/hNord-NO0.0 km/h1019.9 hPa0.0 mm0.0 mm/hwechselhaft
01.09.2026 - 00.55Uhr14.8 °C10.0 °C73 %0.0 W/m²0.0 km/hNord-NO0.0 km/h1019.9 hPa0.0 mm0.0 mm/hwechselhaft
01.09.2026 - 01.00Uhr14.9 °C10.0 °C72 %0.0 W/m²0.0 km/hNord-NO0.0 km/h1019.9 hPa0.0 mm0.0 mm/hwechselhaft
01.09.2026 - 01.05Uhr14.9 °C9.9 °C72 %0.0 W/m²0.0 km/hNord-NO0.0 km/h1019.9 hPa0.0 mm0.0 mm/hwechselhaft
01.09.2026 - 01.10Uhr14.9 °C10.0 °C72 %0.0 W/m²0.0 km/hNord-NO0.0 km/h1019.9 hPa0.0 mm0.0 mm/hwechselhaft
01.09.2026 - 01.15Uhr14.8 °C10.0 °C73 %0.0 W/m²0.0 km/hNord-NO0.0 km/h1020.0 hPa0.0 mm0.0 mm/hwechselhaft
01.09.2026 - 01.20Uhr14.9 °C9.9 °C72 %0.0 W/m²0.0 km/hNord-NO0.0 km/h1020.0 hPa0.0 mm0.0 mm/hwechselhaft
01.09.2026 - 01.25Uhr14.8 °C10.0 °C73 %0.0 W/m²0.0 km/hNord-NO0.0 km/h1020.0 hPa0.0 mm0.0 mm/hwechselhaft
01.09.2026 - 01.30Uhr14.8 °C10.0 °C73 %0.0 W/m²0.0 km/hNord-NO0.0 km/h1019.9 hPa0.0 mm0.0 mm/hwechselhaft
01.09.2026 - 01.35Uhr14.7 °C10.0 °C74 %0.0 W/m²0.0 km/hNord-NO0.0 km/h1020.0 hPa0.0 mm0.0 mm/hwechselhaft
01.09.2026 - 01.40Uhr14.7 °C10.0 °C73 %0.0 W/m²0.0 km/hNord-NO0.0 km/h1020.0 hPa0.0 mm0.0 mm/hwechselhaft
01.09.2026 - 01.45Uhr14.7 °C9.9 °C73 %0.0 W/m²0.0 km/hNord-NO0.0 km/h1020.0 hPa0.0 mm0.0 mm/hwechselhaft
01.09.2026 - 01.50Uhr14.7 °C10.0 °C74 %0.0 W/m²0.0 km/hNord-NO0.0 km/h1020.0 hPa0.0 mm0.0 mm/hwechselhaft
01.09.2026 - 01.55Uhr14.6 °C10.0 °C74 %0.0 W/m²0.0 km/hNord-NO0.0 km/h1020.0 hPa0.0 mm0.0 mm/hwechselhaft
01.09.2026 - 02.00Uhr14.8 °C10.0 °C73 %0.0 W/m²0.0 km/hNord-NO0.0 km/h1019.9 hPa0.0 mm0.0 mm/hwechselhaft